Wind_Speed
15 13 12 11 11 9 8 8 7 5 5 6 5 4 3 3 4 4 4 4 5 5 5 5 5 5 5 5 6 7 6 6 6 6 5 6 7 7 7 8 8 8 7 8
16 14 13 13 13 12 11 10 9 8 8 9 8 6 5 5 5 5 5 4 6 6 6 5 5 4 5 5 6 6 7 6 6 6 5 6 7 7 7 8 8 8 8 8
16 15 15 15 14 13 12 12 11 11 11 10 9 8 7 7 7 7 6 6 7 7 6 6 5 4 4 4 6 6 7 7 7 6 6 6 7 8 8 8 9 9 8 8
18 17 17 16 15 15 13 13 14 13 12 11 11 10 9 9 8 9 8 7 7 7 6 6 6 5 5 5 5 6 7 7 8 9 8 8 9 9 9 9 10 10 9 9
20 19 18 17 15 15 14 14 14 14 13 13 13 13 11 11 11 10 9 8 8 8 8 8 7 7 6 7 7 7 8 8 9 9 9 9 11 11 11 11 11 11 11 11
21 20 20 17 16 16 15 14 14 15 16 16 15 16 14 13 12 11 10 10 10 10 9 9 8 8 8 9 8 9 9 10 10 10 10 11 12 13 12 12 12 13 13 13
22 21 21 19 19 18 18 17 17 17 18 18 17 17 16 14 14 13 12 11 10 10 10 10 10 9 9 9 10 11 11 11 11 11 12 13 14 14 14 13 14 14 15 15
22 21 20 20 20 20 19 19 19 20 19 18 19 19 17 15 14 14 14 12 12 11 11 10 9 9 10 10 11 12 12 12 12 12 13 14 15 15 15 16 16 16 16 16
22 22 21 20 20 20 19 19 20 21 21 21 20 19 17 16 15 15 15 14 13 13 13 12 12 12 11 11 12 13 13 13 14 14 15 16 16 16 16 17 17 17 17 18
22 22 22 21 21 21 21 20 20 21 21 22 21 19 19 18 17 16 16 15 15 14 14 14 13 13 12 12 13 14 15 15 16 16 16 16 17 16 17 17 18 19 19 19
22 22 22 23 23 22 22 22 22 22 22 22 23 20 19 19 17 16 15 15 15 15 14 14 14 14 14 14 15 15 16 16 17 17 17 17 17 17 18 19 20 20 21 21
23 23 22 23 23 23 23 23 23 23 22 23 23 21 18 18 17 16 16 16 16 16 16 16 15 15 16 17 17 17 17 18 18 18 18 18 18 19 19 20 21 21 22 22
24 24 23 24 24 23 23 23 23 23 24 24 23 21 18 19 18 18 17 17 17 17 17 17 17 17 18 19 19 19 18 18 18 18 18 18 19 20 20 22 22 22 22 22
25 26 26 25 24 23 24 24 24 24 25 25 23 22 20 19 19 18 18 18 18 17 17 17 18 19 19 18 18 19 19 18 19 18 18 19 20 21 22 22 22 22 22 23
25 25 24 24 23 23 24 25 25 25 25 25 23 22 20 20 19 19 19 19 18 17 18 19 19 20 19 19 19 19 19 19 19 20 20 21 21 23 24 24 24 24 24 24
27 26 25 25 25 25 25 25 26 26 26 25 24 22 21 20 19 19 19 19 19 19 20 20 20 20 20 20 20 20 20 20 20 21 22 22 23 24 25 25 25 25 25 26
27 27 27 26 26 26 26 25 26 26 25 26 25 23 23 23 21 21 20 20 20 21 21 21 22 22 22 21 21 21 21 21 22 22 23 24 24 24 26 26 26 26 26 27
28 27 27 27 27 28 26 26 26 26 26 26 26 24 24 24 23 22 22 22 22 22 23 23 23 24 24 23 23 23 23 24 24 24 25 25 26 26 26 26 27 27 28 28
29 29 29 29 29 30 28 28 28 28 28 28 27 25 25 24 24 24 24 25 25 25 25 25 24 24 24 24 25 24 24 25 25 26 26 26 26 27 28 28 27 27 28 28
29 30 30 30 30 30 29 29 30 30 30 29 28 27 26 25 25 25 26 26 27 26 24 24 24 24 25 26 26 25 26 26 27 28 27 27 28 28 28 28 28 28 28 28
29 29 30 30 30 30 30 29 29 30 30 29 29 28 28 27 28 28 27 27 27 26 26 27 26 26 27 27 27 27 27 28 29 29 29 29 28 28 29 29 28 28 29 29
30 30 30 30 29 27 27 28 28 29 29 29 29 29 29 29 29 29 29 29 29 28 28 28 28 28 29 29 29 29 29 29 30 30 30 30 30 30 30 30 29 29 29 29
29 29 29 30 29 28 27 28 28 29 29 29 29 28 29 29 30 30 30 30 30 30 30 30 29 30 30 31 31 31 31 31 31 32 32 33 32 31 31 30 30 30 30 30
29 29 29 29 29 29 29 29 29 29 29 29 29 29 29 29 28 29 29 30 30 30 31 32 32 32 32 32 33 33 33 33 33 33 32 32 32 32 31 31 31 31 31 31
28 28 29 29 29 29 30 30 30 30 31 31 30 30 31 31 31 31 30 29 29 30 31 32 32 33 33 33 32 33 34 34 34 33 33 33 33 33 32 31 31 31 31 31
28 27 28 28 28 29 29 30 30 31 31 31 30 30 31 31 31 31 31 31 32 32 33 33 34 34 33 33 33 34 34 35 35 34 34 34 34 33 32 32 31 31 32 32
Wind_Direction
216 216 219 222 222 225 228 234 234 242 251 257 272 278 309 320 318 330 331 328 334 339 332 333 344 356 2 2 8 14 6 5 5 5 3 7 8 5 4 360 355 350 347 348
219 220 222 223 225 231 236 242 245 250 259 260 264 268 276 284 291 302 317 321 324 325 323 322 329 337 343 347 343 342 347 348 344 343 345 351 347 346 348 348 345 340 338 340
221 223 226 227 229 236 239 248 251 252 257 264 266 265 268 271 276 285 295 302 311 316 317 319 320 321 331 338 336 335 335 336 334 328 323 327 327 329 330 331 331 329 325 325
223 225 229 230 234 240 245 253 256 254 256 261 266 270 264 270 274 281 290 293 303 308 309 317 314 312 318 330 331 333 328 328 329 326 318 315 315 316 317 319 319 319 318 315
227 227 230 233 240 245 249 253 254 255 256 260 265 270 266 274 277 279 285 292 296 300 300 312 314 311 310 316 317 321 320 320 321 320 319 317 312 308 309 310 310 309 309 308
229 229 232 236 240 246 251 252 255 258 258 260 265 270 271 270 275 274 276 287 296 294 294 297 307 311 308 308 310 310 311 311 312 316 310 312 311 308 304 302 304 304 305 305
230 232 234 235 238 244 249 252 257 261 263 264 265 267 270 272 271 272 277 283 293 293 292 292 292 303 301 301 300 301 305 308 309 313 312 313 308 305 305 307 305 304 307 307
232 233 235 236 240 245 249 252 257 261 265 266 265 266 270 273 275 275 275 280 284 287 288 289 292 291 294 297 297 297 299 300 302 305 305 306 303 304 306 308 309 308 308 307
233 234 236 238 239 244 247 250 255 262 266 267 268 270 271 273 277 280 278 276 280 281 282 285 290 291 291 296 300 299 295 295 298 299 300 301 304 304 306 307 308 309 308 306
234 234 233 238 241 243 248 250 254 261 268 270 269 271 274 276 276 280 280 276 276 279 282 284 288 291 297 299 299 300 295 294 298 297 297 297 300 302 308 309 306 304 304 306
236 238 235 237 241 244 248 251 255 260 266 270 273 274 277 279 279 280 278 279 277 277 281 283 285 287 291 295 296 294 291 291 295 296 295 296 299 302 306 306 306 304 303 303
241 243 242 243 244 245 248 252 255 259 265 270 275 275 277 275 276 277 277 277 277 277 280 284 285 288 292 293 294 294 291 288 290 290 291 296 300 303 304 305 305 303 303 305
244 246 248 249 248 249 247 249 254 261 268 271 273 277 278 275 274 275 279 281 279 277 281 284 287 287 290 291 293 293 291 288 286 287 290 295 298 300 302 303 305 304 305 305
247 248 249 250 252 252 249 250 255 261 264 268 273 278 277 275 274 276 278 282 281 279 282 285 287 288 288 288 290 291 293 288 288 287 290 294 297 297 298 300 302 301 302 303
247 249 250 248 248 249 251 252 255 260 264 268 272 273 272 273 274 277 279 279 279 279 282 284 287 290 289 288 289 290 291 291 288 287 290 293 295 295 297 297 299 299 299 299
250 252 252 251 250 252 254 256 258 261 264 267 269 269 268 270 273 274 279 279 279 280 282 286 287 288 289 290 289 288 290 290 289 289 291 293 296 296 297 298 297 297 298 297
251 253 252 252 253 256 258 259 260 261 262 265 266 266 265 268 269 272 275 277 279 280 282 285 285 286 286 288 290 288 290 290 289 290 292 296 298 298 296 295 295 296 295 295
249 250 253 255 255 256 260 261 262 263 262 262 264 265 267 269 268 270 273 275 277 277 279 282 283 283 285 285 287 290 291 290 290 291 294 296 296 296 297 297 297 295 295 295
247 249 252 254 256 257 258 260 262 264 263 263 263 265 268 270 269 268 270 272 274 276 278 281 282 283 283 284 288 291 292 292 292 293 294 295 296 297 297 298 297 296 295 295
249 249 251 254 256 258 259 260 261 262 263 263 263 265 267 268 270 272 272 272 275 276 276 278 280 283 284 286 288 290 292 292 292 293 293 294 295 295 295 295 295 294 293 293
249 250 251 253 256 259 259 260 260 260 263 264 265 266 268 268 270 271 272 272 273 274 275 277 277 280 282 284 286 288 289 290 291 291 290 291 292 292 293 292 292 292 292 292
249 249 250 252 255 258 259 260 258 259 262 265 266 268 268 269 269 270 271 273 273 273 274 274 276 280 281 283 283 286 288 290 290 290 290 288 289 289 290 290 290 290 289 290
250 249 250 252 254 257 257 258 259 260 262 264 266 267 268 268 269 270 272 273 272 273 275 276 277 279 281 282 283 285 286 288 289 289 289 289 288 289 290 289 288 290 290 289
251 250 250 251 253 255 256 259 261 261 261 263 265 268 268 269 270 270 272 273 272 273 274 277 279 279 281 282 283 285 287 288 288 288 288 288 289 290 289 288 288 289 290 291
251 252 252 253 255 256 257 259 260 261 262 263 264 267 270 270 271 271 272 274 275 274 275 277 278 279 279 280 282 285 286 287 287 286 287 287 287 288 287 287 286 287 289 290
252 254 256 256 257 258 258 259 260 263 263 263 265 267 269 269 269 272 273 273 274 274 275 276 277 278 278 279 281 283 285 285 286 286 288 289 286 287 285 284 284 285 287 288
Height
5899 5902 5903 5904 5905 5906 5907 5907 5908 5909 5909 5910 5909 5909 5909 5909 5908 5908 5908 5907 5906 5906 5905 5903 5902 5901 5901 5900 5899 5898 5898 5897 5896 5895 5894 5893 5892 5892 5891 5889 5888 5886 5885 5884
5898 5900 5902 5902 5903 5904 5905 5906 5907 5907 5907 5908 5908 5908 5908 5908 5908 5907 5907 5907 5906 5905 5904 5903 5902 5901 5900 5899 5899 5898 5897 5896 5895 5895 5894 5893 5892 5891 5890 5888 5887 5886 5884 5883
5895 5898 5899 5900 5901 5902 5903 5905 5905 5906 5905 5906 5906 5907 5907 5907 5907 5906 5906 5905 5905 5904 5903 5902 5900 5899 5898 5898 5898 5897 5896 5894 5893 5893 5892 5892 5891 5890 5888 5887 5886 5884 5883 5881
5892 5895 5897 5898 5899 5900 5901 5902 5903 5903 5903 5903 5905 5905 5906 5906 5906 5905 5904 5903 5903 5903 5902 5901 5900 5899 5898 5897 5897 5896 5894 5893 5892 5891 5891 5890 5889 5887 5886 5885 5884 5882 5881 5879
5890 5892 5894 5895 5897 5898 5899 5899 5900 5900 5900 5901 5902 5903 5905 5904 5904 5904 5903 5902 5901 5900 5900 5899 5898 5898 5896 5896 5895 5894 5893 5892 5891 5890 5889 5888 5887 5885 5884 5882 5881 5880 5878 5876
5886 5889 5890 5893 5894 5895 5896 5897 5897 5897 5898 5899 5900 5900 5901 5902 5902 5901 5900 5900 5899 5898 5897 5897 5896 5896 5895 5894 5893 5893 5892 5891 5890 5888 5887 5885 5884 5882 5880 5879 5878 5877 5875 5873
5883 5885 5887 5889 5890 5892 5893 5894 5895 5894 5895 5896 5897 5897 5898 5899 5899 5898 5898 5898 5897 5896 5895 5894 5894 5893 5892 5891 5891 5890 5890 5889 5887 5886 5884 5882 5880 5879 5877 5876 5875 5874 5872 5870
5878 5881 5883 5885 5886 5888 5889 5891 5892 5892 5892 5893 5893 5893 5896 5896 5896 5895 5895 5895 5894 5893 5892 5892 5891 5890 5890 5889 5888 5887 5886 5885 5884 5883 5881 5879 5877 5876 5875 5873 5872 5870 5868 5866
5874 5877 5880 5881 5883 5884 5885 5886 5888 5888 5888 5889 5889 5890 5892 5892 5892 5892 5892 5891 5891 5890 5889 5889 5888 5887 5887 5886 5885 5884 5882 5881 5880 5879 5877 5876 5874 5873 5871 5869 5868 5866 5864 5862
5870 5873 5875 5877 5879 5880 5881 5882 5883 5884 5884 5884 5886 5887 5888 5888 5889 5889 5889 5888 5887 5887 5886 5885 5885 5884 5883 5882 5881 5880 5879 5877 5876 5875 5874 5872 5870 5869 5867 5865 5863 5862 5860 5858
5865 5868 5870 5872 5873 5875 5877 5878 5878 5879 5880 5881 5881 5885 5885 5884 5885 5885 5885 5884 5883 5883 5882 5881 5881 5880 5879 5878 5877 5876 5874 5873 5872 5870 5869 5868 5866 5864 5862 5861 5859 5857 5855 5853
5861 5863 5865 5867 5869 5870 5872 5873 5874 5876 5876 5876 5877 5881 5880 5880 5880 5881 5881 5880 5879 5879 5878 5877 5876 5875 5874 5873 5872 5871 5869 5868 5866 5865 5864 5863 5861 5859 5858 5856 5853 5851 5850 5848
5856 5858 5860 5861 5865 5865 5866 5868 5869 5871 5871 5871 5872 5876 5875 5875 5875 5876 5876 5876 5875 5874 5874 5873 5872 5871 5870 5869 5867 5866 5864 5863 5861 5860 5859 5857 5856 5854 5852 5850 5848 5846 5844 5842
5851 5852 5855 5856 5858 5860 5861 5863 5864 5865 5865 5866 5867 5869 5870 5870 5871 5871 5871 5871 5870 5870 5869 5868 5867 5866 5865 5864 5862 5861 5859 5858 5856 5855 5853 5852 5850 5848 5846 5844 5842 5840 5838 5836
5845 5846 5848 5850 5852 5854 5856 5857 5859 5860 5861 5862 5863 5864 5865 5865 5865 5866 5866 5866 5865 5865 5864 5863 5863 5862 5860 5859 5857 5855 5854 5852 5851 5849 5848 5846 5844 5843 5840 5838 5836 5835 5832 5830
5839 5840 5842 5844 5846 5848 5850 5852 5853 5854 5855 5856 5857 5859 5860 5860 5860 5861 5861 5861 5860 5860 5859 5858 5857 5856 5855 5854 5852 5850 5848 5846 5845 5844 5842 5840 5838 5836 5834 5832 5830 5828 5826 5823
5833 5835 5837 5839 5840 5842 5844 5846 5847 5849 5849 5851 5851 5854 5854 5854 5855 5856 5856 5856 5855 5854 5854 5853 5852 5850 5849 5847 5846 5844 5843 5841 5840 5838 5836 5834 5832 5830 5828 5826 5823 5821 5819 5817
5827 5829 5831 5832 5835 5836 5840 5839 5841 5842 5843 5844 5845 5846 5847 5848 5849 5849 5849 5849 5849 5848 5847 5846 5845 5843 5842 5840 5839 5838 5836 5835 5834 5832 5829 5827 5825 5823 5821 5818 5816 5814 5812 5809
5821 5823 5824 5826 5827 5829 5831 5832 5833 5834 5835 5837 5838 5839 5840 5841 5842 5843 5843 5842 5842 5841 5840 5839 5838 5836 5835 5834 5833 5831 5830 5829 5827 5825 5823 5820 5818 5815 5813 5811 5808 5806 5804 5802
5815 5817 5818 5819 5820 5822 5825 5825 5825 5827 5828 5829 5830 5831 5833 5834 5835 5836 5836 5835 5834 5833 5832 5832 5831 5829 5828 5827 5826 5824 5823 5821 5819 5817 5815 5813 5810 5808 5806 5803 5801 5798 5796 5794
5808 5809 5810 5811 5813 5814 5816 5817 5818 5820 5822 5822 5823 5824 5825 5825 5827 5827 5827 5827 5826 5826 5825 5824 5823 5822 5821 5820 5818 5817 5815 5813 5811 5809 5807 5805 5803 5800 5798 5795 5793 5790 5788 5786
5799 5801 5803 5804 5805 5809 5808 5809 5811 5812 5813 5814 5815 5816 5817 5817 5818 5818 5819 5819 5818 5818 5817 5816 5815 5814 5813 5812 5810 5809 5807 5805 5803 5801 5798 5796 5794 5791 5789 5787 5784 5782 5779 5777
5792 5794 5795 5797 5800 5800 5801 5802 5803 5804 5806 5807 5807 5808 5808 5809 5809 5810 5810 5810 5809 5809 5809 5808 5807 5806 5805 5803 5801 5800 5798 5796 5794 5791 5789 5787 5785 5782 5780 5778 5775 5773 5771 5769
5784 5786 5788 5789 5791 5792 5793 5794 5795 5796 5797 5798 5799 5800 5800 5801 5801 5801 5801 5800 5800 5800 5800 5799 5798 5797 5795 5794 5792 5790 5788 5786 5784 5782 5780 5778 5776 5773 5771 5769 5767 5765 5763 5760
5777 5778 5780 5781 5783 5784 5786 5787 5788 5788 5789 5790 5791 5791 5792 5792 5793 5792 5792 5792 5791 5791 5790 5790 5789 5788 5786 5784 5782 5781 5779 5777 5774 5772 5770 5768 5766 5764 5762 5760 5758 5756 5754 5752
5769 5771 5772 5773 5775 5776 5777 5778 5779 5780 5780 5781 5782 5782 5783 5783 5783 5783 5782 5782 5782 5781 5781 5780 5778 5777 5776 5774 5773 5771 5769 5767 5765 5763 5761 5758 5756 5753 5752 5750 5748 5746 5745 5743